"Pseudo-MPEC" for RFD0043

Created 2023 Dec 1 12:22:07 UT using Find_Orb

Click here for an explanation of pseudo-MPECs

 
 Astrometry: 
     RFD0043*5C2023 11 11.34227405 20 06.170+20 23 38.44   ~BBBb 21.8 GVNEOCPU94
     RFD0043 5C2023 11 11.35364605 20 06.762+20 23 37.80   ~BBBb 21.2 GVNEOCPU94
     RFD0043 5C2023 11 11.36311905 20 07.340+20 23 38.49   ~BBBb 21.7 GVNEOCPU94

Station data:
(U94) iTelescope Observatory, Beryl Junction  (N37.737780 W113.697500)
   US/Utah.  Observer F. D. Romanov. 0.51-m f/4.5 Corrected Dall-Kirkham +
   CCD0.51-m f/6.8 astrograph + f/4.5 focal reducer + CCD.

Orbital elements:  RFD0043
   Perihelion 2024 Jan 22.96988 +/- 38 TT = 23:16:37 (JD 2460332.46988)
Epoch 2023 Nov 11.0 TT = JDT 2460259.5   Earth MOID: 0.0014   Ve: 0.0048
M 326.10187516 +/- 28               Ma: 0.0120                   AutoNEOCP
n   0.46454955 +/- 0.391            Peri.   95.10757 +/- 90
a   1.65113031 +/- 0.926            Node    76.80613 +/- 50
e   0.6756278 +/- 0.249             Incl.    1.93839 +/- 2.2
P   2.12/774.93d           H 22.65  G  0.15   U 12.1  SR
q 0.53558072 +/- 0.477    Q 2.76667991 +/- 40.3           (J2000 ecliptic)
From 3 observations 2023 Nov. 11 (30.0 min); mean residual 0".32
Residuals in arcseconds: 
231111 U94  .20+  .21+    231111 U94  .44-  .45-    231111 U94  .24+  .25+    

Ephemerides (geocentric):
Date (UTC) HH   RA             Dec           delta  r     elong  mag " sig PA
---- --------  ------------   ------------  ------ ------ -----  --- --------
2023 12 01 12  06 28 57.546   +19 29 38.87  .06015 1.0394 151.6 17.8  73d  76
2023 12 01 13  06 29 37.528   +19 28 40.52  .05966 1.0389 151.5 17.8  73d  76
2023 12 01 14  06 30 18.158   +19 27 40.67  .05917 1.0384 151.4 17.8  73d  76
2023 12 01 15  06 30 59.451   +19 26 39.25  .05868 1.0379 151.3 17.8  73d  76
2023 12 01 16  06 31 41.423   +19 25 36.22  .05819 1.0374 151.1 17.8  73d  76
2023 12 01 17  06 32 24.092   +19 24 31.51  .05769 1.0369 151.0 17.8  73d  76
2023 12 01 18  06 33 07.473   +19 23 25.09  .05720 1.0364 150.9 17.7  73d  76
2023 12 01 19  06 33 51.583   +19 22 16.87  .05672 1.0359 150.8 17.7  73d  76
2023 12 01 20  06 34 36.442   +19 21 06.81  .05623 1.0354 150.6 17.7  73d  76
2023 12 01 21  06 35 22.066   +19 19 54.84  .05574 1.0349 150.5 17.7  73d  76
2023 12 01 22  06 36 08.476   +19 18 40.89  .05525 1.0344 150.3 17.7  73d  76
2023 12 01 23  06 36 55.691   +19 17 24.90  .05476 1.0339 150.2 17.7  73d  76
2023 12 02 00  06 37 43.730   +19 16 06.78  .05428 1.0334 150.0 17.7  73d  76
2023 12 02 01  06 38 32.616   +19 14 46.48  .05379 1.0329 149.9 17.6  73d  76
2023 12 02 02  06 39 22.368   +19 13 23.90  .05331 1.0324 149.7 17.6  73d  76
2023 12 02 03  06 40 13.011   +19 11 58.96  .05282 1.0319 149.6 17.6  73d  76
2023 12 02 04  06 41 04.565   +19 10 31.58  .05234 1.0314 149.4 17.6  73d  76
2023 12 02 05  06 41 57.056   +19 09 01.68  .05185 1.0309 149.3 17.6  74d  76
2023 12 02 06  06 42 50.507   +19 07 29.14  .05137 1.0304 149.1 17.6  74d  76
2023 12 02 07  06 43 44.944   +19 05 53.89  .05089 1.0299 148.9 17.5  74d  76
2023 12 02 08  06 44 40.393   +19 04 15.82  .05041 1.0294 148.7 17.5  74d  76
2023 12 02 09  06 45 36.880   +19 02 34.82  .04993 1.0289 148.6 17.5  74d  76
2023 12 02 10  06 46 34.434   +19 00 50.78  .04945 1.0284 148.4 17.5  74d  76
2023 12 02 11  06 47 33.083   +18 59 03.59  .04897 1.0279 148.2 17.5  74d  76
2023 12 02 12  06 48 32.857   +18 57 13.11  .04849 1.0274 148.0 17.5  74d  76
2023 12 02 13  06 49 33.786   +18 55 19.24  .04802 1.0269 147.8 17.4  74d  76
2023 12 02 14  06 50 35.902   +18 53 21.83  .04754 1.0264 147.6 17.4  74d  76
2023 12 02 15  06 51 39.237   +18 51 20.75  .04706 1.0259 147.4 17.4  74d  76
2023 12 02 16  06 52 43.827   +18 49 15.85  .04659 1.0254 147.2 17.4  74d  76
2023 12 02 17  06 53 49.704   +18 47 06.98  .04612 1.0249 146.9 17.4  74d  76
2023 12 02 18  06 54 56.907   +18 44 53.99  .04565 1.0244 146.7 17.4  74d  76
2023 12 02 19  06 56 05.471   +18 42 36.70  .04517 1.0239 146.5 17.3  74d  76
2023 12 02 20  06 57 15.436   +18 40 14.94  .04470 1.0234 146.2 17.3  74d  76
2023 12 02 21  06 58 26.841   +18 37 48.53  .04424 1.0229 146.0 17.3  74d  76
2023 12 02 22  06 59 39.728   +18 35 17.28  .04377 1.0224 145.8 17.3  74d  76
2023 12 02 23  07 00 54.140   +18 32 40.99  .04330 1.0219 145.5 17.3  74d  76
2023 12 03 00  07 02 10.121   +18 29 59.45  .04284 1.0214 145.2 17.3  74d  76
2023 12 03 01  07 03 27.715   +18 27 12.44  .04237 1.0209 145.0 17.2  74d  76
2023 12 03 02  07 04 46.972   +18 24 19.73  .04191 1.0204 144.7 17.2  74d  76
2023 12 03 03  07 06 07.939   +18 21 21.08  .04145 1.0198 144.4 17.2  74d  76
2023 12 03 04  07 07 30.667   +18 18 16.23  .04099 1.0193 144.1 17.2  74d  76
2023 12 03 05  07 08 55.209   +18 15 04.93  .04053 1.0188 143.8 17.2  74d  76
2023 12 03 06  07 10 21.618   +18 11 46.89  .04007 1.0183 143.5 17.2  74d  76
2023 12 03 07  07 11 49.950   +18 08 21.82  .03962 1.0178 143.2 17.1  74d  76
2023 12 03 08  07 13 20.263   +18 04 49.42  .03916 1.0173 142.9 17.1  74d  76
2023 12 03 09  07 14 52.617   +18 01 09.36  .03871 1.0168 142.6 17.1  74d  76
2023 12 03 10  07 16 27.073   +17 57 21.30  .03826 1.0163 142.2 17.1  75d  76
2023 12 03 11  07 18 03.696   +17 53 24.90  .03781 1.0158 141.9 17.1  75d  76